Content
SEND FEEDBACK

Daily
Averages
Monthly
Summary
United States of America

WEST MEMPHIS, ARKANSAS


Home > North America > United States > Arkansas
Elevation: 215 feet     Latitude: 35 07N     Longitude: 090 11W

WEATHER
 
SELECT A DAY
Number of Records: 123,139;   Date Range: 1/15/03 - 10/18/14
 
SHARE

PRINT THIS DATA

[ ← Previous Day ]
WEATHER ALMANAC - JANUARY 31, 2013
[ Next Day → ]
[ °C ]   °F
Weather ElementAverageHighLow
Temperature39 °F53.1 °F (3:53 pm)30 °F (3:53 am)
Dewpoint28.6 °F33.1 °F (5:53 pm)24.1 °F (1:53 am)
Humidity68.4 %87 % (11:18 pm)43 % (3:53 pm)
Barometer30.17 in30.37 in (11:53 pm)30.06 in (2:53 pm)
Wind Speed6.9 mph16.1 mph (9:53 pm)
Wind Gust26.5 mph (9:53 pm)
Weather ElementAverage
Visibility10 mi
Wind DirectionSSW (198 °)

Weather ElementTotal
Precipitation---
Heating Degree Days23.5 (Base 65)
Averaged from 25 records on January 31, 2013
WEATHER CONDITIONS BREAKOUT
WIND DIRECTION BREAKOUT
WEATHER BY HOUR - JANUARY 31, 2013
[ °C ]   °F
Local TimeTemperatureDewpointHumidityBarometerVisibilityWind DirectionWind SpeedGust SpeedPrecipitationEventsConditions
1:53 AM30.9 °F24.1 °F76 %30.07 in10.0 miCalmClear
2:53 AM30.9 °F25.0 °F79 %30.07 in10.0 miCalmClear
3:53 AM30.0 °F25.0 °F82 %30.07 in10.0 miCalmClear
4:53 AM30.9 °F25.0 °F79 %30.08 in10.0 miWSW (240°)4.6 mphClear
5:53 AM30.9 °F25.0 °F79 %30.12 in10.0 miCalmClear
6:53 AM30.0 °F26.1 °F85 %30.14 in10.0 miSW (220°)3.5 mphClear
7:53 AM32.0 °F27.0 °F82 %30.17 in10.0 miVariable3.5 mphClear
8:10 AM33.8 °F26.6 °F75 %30.17 in10.0 miWSW (250°)4.6 mphPartly Cloudy
9:53 AM37.9 °F28.0 °F68 %30.20 in10.0 miWest (260°)5.8 mphClear
10:53 AM41.0 °F28.0 °F60 %30.18 in10.0 miVariable5.8 mphClear
11:53 AM44.1 °F30.9 °F60 %30.15 in10.0 miSouth (180°)9.2 mphClear
12:53 PM48.9 °F32.0 °F52 %30.11 in10.0 miSW (220°)10.4 mph20.7 mphClear
1:53 PM52.0 °F32.0 °F47 %30.08 in10.0 miSSW (210°)9.2 mph19.6 mphClear
2:53 PM52.0 °F32.0 °F47 %30.06 in10.0 miWSW (240°)12.7 mph17.3 mphClear
3:53 PM53.1 °F30.9 °F43 %30.08 in10.0 miSW (230°)11.5 mph20.7 mphClear
4:53 PM52.0 °F32.0 °F47 %30.09 in10.0 miSW (220°)8.1 mphClear
5:53 PM50.0 °F33.1 °F52 %30.09 in10.0 miSW (220°)5.8 mphClear
6:53 PM48.9 °F32.0 °F52 %30.12 in10.0 miCalmMostly Cloudy
8:53 PM42.1 °F32.0 °F67 %30.24 in10.0 miNorth (350°)13.8 mph25.3 mphOvercast
9:53 PM37.0 °F27.0 °F67 %30.30 in10.0 miNorth (350°)16.1 mph26.5 mphOvercast
10:53 PM34.0 °F27.0 °F75 %30.34 in10.0 miNorth (350°)11.5 mph20.7 mphOvercast
11:11 PM33.8 °F28.4 °F81 %30.34 in10.0 miNorth (360°)10.4 mph17.3 mphOvercast
11:18 PM33.8 °F30.2 °F87 %30.34 in10.0 miNorth (350°)5.8 mph17.3 mphOvercast
11:37 PM32.0 °F28.4 °F87 %30.35 in10.0 miNorth (350°)9.2 mphOvercast
11:53 PM32.0 °F27.0 °F82 %30.37 in10.0 miNorth (350°)10.4 mph16.1 mphOvercast
Hourly data recorded from KAWM, located miles away from West Memphis, Arkansas







STORIES FROM OUR PARTNERS